Time,TemperatureF,DewpointF,PressureIn,WindDirection,WindDirectionDegrees,WindSpeedMPH,WindSpeedGustMPH,Humidity,HourlyPrecipIn,Conditions,Clouds,dailyrainin,SoftwareType,DateUTC
2013-10-31 00:42:00,51.0,-99.9,-100.00,NNE,28,11.0,11.0,-999,-99.99,,,-99.99,,2013-10-31 07:42:00,
2013-10-31 01:20:00,51.0,-99.9,-100.00,SE,145,7.0,13.0,-999,-99.99,,,-99.99,,2013-10-31 08:20:00,
2013-10-31 02:11:00,51.0,-99.9,-100.00,SE,145,7.0,13.0,-999,-99.99,,,-99.99,,2013-10-31 09:11:00,
2013-10-31 03:10:00,54.0,-99.9,-100.00,ESE,112,4.0,6.0,-999,-99.99,,,-99.99,,2013-10-31 10:10:00,
2013-10-31 03:23:00,53.0,-99.9,-100.00,SSW,202,5.0,8.0,-999,-99.99,,,-99.99,,2013-10-31 10:23:00,
2013-10-31 03:42:00,53.0,-99.9,-100.00,South,184,3.0,10.0,-999,-99.99,,,-99.99,,2013-10-31 10:42:00,
2013-10-31 03:53:00,54.0,-99.9,-100.00,ESE,112,4.0,6.0,-999,-99.99,,,-99.99,,2013-10-31 10:53:00,
2013-10-31 04:03:00,54.0,-99.9,-100.00,ESE,112,4.0,6.0,-999,-99.99,,,-99.99,,2013-10-31 11:03:00,
2013-10-31 04:42:00,54.0,-99.9,-100.00,ENE,78,3.0,10.0,-999,-99.99,,,-99.99,,2013-10-31 11:42:00,
2013-10-31 04:52:00,54.0,-99.9,-100.00,ENE,78,3.0,10.0,-999,-99.99,,,-99.99,,2013-10-31 11:52:00,
2013-10-31 05:42:00,51.0,-99.9,-100.00,ENE,68,5.0,10.0,-999,-99.99,,,-99.99,,2013-10-31 12:42:00,
2013-10-31 05:53:00,51.0,-99.9,-100.00,ENE,68,5.0,10.0,-999,-99.99,,,-99.99,,2013-10-31 12:53:00,
2013-10-31 06:12:00,48.0,-99.9,-100.00,East,98,5.0,6.0,-999,-99.99,,,-99.99,,2013-10-31 13:12:00,
2013-10-31 09:23:00,60.0,-99.9,-100.00,East,101,8.0,10.0,-999,-99.99,,,-99.99,,2013-10-31 16:23:00,
2013-10-31 09:43:00,59.0,-99.9,-100.00,NE,44,6.0,11.0,-999,-99.99,,,-99.99,,2013-10-31 16:43:00,
2013-10-31 10:20:00,66.0,-99.9,-100.00,ENE,63,8.0,16.0,-999,-99.99,,,-99.99,,2013-10-31 17:20:00,
2013-10-31 10:52:00,66.0,-99.9,-100.00,ENE,57,11.0,14.0,-999,-99.99,,,-99.99,,2013-10-31 17:52:00,
2013-10-31 11:12:00,66.0,-99.9,-100.00,ENE,63,8.0,16.0,-999,-99.99,,,-99.99,,2013-10-31 18:12:00,
2013-10-31 12:10:00,70.0,-99.9,-100.00,ENE,58,0.0,13.0,-999,-99.99,,,-99.99,,2013-10-31 19:10:00,
2013-10-31 12:22:00,69.0,-99.9,-100.00,NNE,13,14.0,20.0,-999,-99.99,,,-99.99,,2013-10-31 19:22:00,
2013-10-31 12:42:00,69.0,-99.9,-100.00,NNE,21,14.0,14.0,-999,-99.99,,,-99.99,,2013-10-31 19:42:00,
2013-10-31 12:50:00,71.0,-99.9,-100.00,ENE,63,12.0,12.0,-999,-99.99,,,-99.99,,2013-10-31 19:50:00,
2013-10-31 12:52:00,70.0,-99.9,-100.00,ENE,58,0.0,13.0,-999,-99.99,,,-99.99,,2013-10-31 19:52:00,
2013-10-31 13:02:00,70.0,-99.9,-100.00,ENE,58,0.0,13.0,-999,-99.99,,,-99.99,,2013-10-31 20:02:00,
2013-10-31 13:22:00,70.0,-99.9,-100.00,North,-999,-999.0,-999.0,-999,-99.99,,,-99.99,,2013-10-31 20:22:00,
2013-10-31 13:40:00,72.0,-99.9,-100.00,East,100,1.0,11.0,-999,-99.99,,,-99.99,,2013-10-31 20:40:00,
2013-10-31 13:42:00,71.0,-99.9,-100.00,ENE,63,12.0,12.0,-999,-99.99,,,-99.99,,2013-10-31 20:42:00,
2013-10-31 14:00:00,73.0,-99.9,-100.00,East,100,6.0,9.0,-999,-99.99,,,-99.99,,2013-10-31 21:00:00,
2013-10-31 14:22:00,72.0,-99.9,-100.00,East,100,1.0,11.0,-999,-99.99,,,-99.99,,2013-10-31 21:22:00,
2013-10-31 14:33:00,72.0,-99.9,-100.00,East,100,1.0,11.0,-999,-99.99,,,-99.99,,2013-10-31 21:33:00,
2013-10-31 14:54:00,73.0,-99.9,-100.00,East,100,6.0,9.0,-999,-99.99,,,-99.99,,2013-10-31 21:54:00,
2013-10-31 16:10:00,73.0,-99.9,-100.00,ENE,70,10.0,12.0,-999,-99.99,,,-99.99,,2013-10-31 23:10:00,
2013-10-31 16:23:00,73.0,-99.9,-100.00,NE,52,7.0,13.0,-999,-99.99,,,-99.99,,2013-10-31 23:23:00,
2013-10-31 16:43:00,73.0,-99.9,-100.00,North,5,7.0,12.0,-999,-99.99,,,-99.99,,2013-10-31 23:43:00,
2013-10-31 16:54:00,73.0,-99.9,-100.00,ENE,70,10.0,12.0,-999,-99.99,,,-99.99,,2013-10-31 23:54:00,
2013-10-31 17:02:00,73.0,-99.9,-100.00,ENE,70,10.0,12.0,-999,-99.99,,,-99.99,,2013-11-01 00:02:00,
2013-10-31 17:50:00,70.0,-99.9,-100.00,NNE,15,12.0,12.0,-999,-99.99,,,-99.99,,2013-11-01 00:50:00,
2013-10-31 17:52:00,73.0,-99.9,-100.00,ENE,78,6.0,11.0,-999,-99.99,,,-99.99,,2013-11-01 00:52:00,
2013-10-31 18:12:00,72.0,-99.9,-100.00,ENE,70,9.0,13.0,-999,-99.99,,,-99.99,,2013-11-01 01:12:00,
2013-10-31 18:22:00,72.0,-99.9,-100.00,East,94,6.0,9.0,-999,-99.99,,,-99.99,,2013-11-01 01:22:00,
2013-10-31 18:42:00,70.0,-99.9,-100.00,NNE,15,12.0,12.0,-999,-99.99,,,-99.99,,2013-11-01 01:42:00,
2013-10-31 19:10:00,65.0,-99.9,-100.00,North,351,6.0,10.0,-999,-99.99,,,-99.99,,2013-11-01 02:10:00,
2013-10-31 19:52:00,65.0,-99.9,-100.00,North,351,6.0,10.0,-999,-99.99,,,-99.99,,2013-11-01 02:52:00,
2013-10-31 20:03:00,65.0,-99.9,-100.00,North,351,6.0,10.0,-999,-99.99,,,-99.99,,2013-11-01 03:03:00,
2013-10-31 20:45:00,63.0,-99.9,-100.00,SE,136,5.0,14.0,-999,-99.99,,,-99.99,,2013-11-01 03:45:00,
2013-10-31 20:54:00,63.0,-99.9,-100.00,SE,136,5.0,14.0,-999,-99.99,,,-99.99,,2013-11-01 03:54:00,
2013-10-31 21:24:00,61.0,-99.9,-100.00,NNE,33,11.0,11.0,-999,-99.99,,,-99.99,,2013-11-01 04:24:00,
2013-10-31 21:34:00,61.0,-99.9,-100.00,NNE,33,11.0,11.0,-999,-99.99,,,-99.99,,2013-11-01 04:34:00,
2013-10-31 21:54:00,61.0,-99.9,-100.00,NNE,15,10.0,14.0,-999,-99.99,,,-99.99,,2013-11-01 04:54:00,
2013-10-31 22:04:00,61.0,-99.9,-100.00,NNE,15,10.0,14.0,-999,-99.99,,,-99.99,,2013-11-01 05:04:00,
2013-10-31 22:53:00,58.0,-99.9,-100.00,North,0,4.0,4.0,-999,-99.99,,,-99.99,,2013-11-01 05:53:00,
2013-10-31 23:02:00,58.0,-99.9,-100.00,North,0,4.0,4.0,-999,-99.99,,,-99.99,,2013-11-01 06:02:00,
2013-10-31 23:52:00,58.0,-99.9,-100.00,South,189,10.0,11.0,-999,-99.99,,,-99.99,,2013-11-01 06:52:00,